Time,TemperatureF,DewpointF,PressureIn,WindDirection,WindDirectionDegrees,WindSpeedMPH,WindSpeedGustMPH,Humidity,HourlyPrecipIn,Conditions,Clouds,dailyrainin,SolarRadiationWatts/m^2,SoftwareType,DateUTC
2013-03-29 00:00:00,64.0,59.7,29.97,ENE,77,6.0,12.0,86,0.00,FEW,SCT,0.00,0.0,WeatherDisplay:10.37,2013-03-29 10:00:00,
2013-03-29 00:10:00,63.8,59.6,29.96,East,80,6.0,14.0,86,0.00,CLR,SCT,0.00,0.0,WeatherDisplay:10.37,2013-03-29 10:10:00,
2013-03-29 00:20:00,63.7,60.1,29.96,East,81,7.0,16.0,88,0.00,CLR,SCT,0.00,0.0,WeatherDisplay:10.37,2013-03-29 10:20:00,
2013-03-29 00:30:00,63.5,59.6,29.96,ENE,73,5.0,13.0,87,0.00,CLR,SCT,0.00,0.0,WeatherDisplay:10.37,2013-03-29 10:30:00,
2013-03-29 00:40:00,63.3,58.7,29.95,East,84,5.0,12.0,85,0.00,CLR,SCT,0.00,0.0,WeatherDisplay:10.37,2013-03-29 10:40:00,
2013-03-29 00:50:00,63.4,58.1,29.96,ENE,77,8.0,16.0,83,0.00,CLR,SCT,0.00,0.0,WeatherDisplay:10.37,2013-03-29 10:50:00,
2013-03-29 01:00:00,63.7,58.4,29.96,ENE,75,3.0,13.0,83,0.00,CLR,SCT,0.00,0.0,WeatherDisplay:10.37,2013-03-29 11:00:00,
2013-03-29 01:10:00,63.5,58.9,29.95,ENE,72,6.0,12.0,85,0.00,FEW,SCT,0.00,0.0,WeatherDisplay:10.37,2013-03-29 11:10:00,
2013-03-29 01:20:00,63.2,58.9,29.95,ENE,74,8.0,15.0,86,0.00,FEW,SCT,0.00,0.0,WeatherDisplay:10.37,2013-03-29 11:20:00,
2013-03-29 01:30:00,63.3,59.0,29.95,East,84,5.0,15.0,86,0.00,FEW,SCT,0.00,0.0,WeatherDisplay:10.37,2013-03-29 11:30:00,
2013-03-29 01:40:00,63.5,58.9,29.94,ENE,75,12.0,18.0,85,0.00,FEW,SCT,0.00,0.0,WeatherDisplay:10.37,2013-03-29 11:40:00,
2013-03-29 01:50:00,63.7,58.8,29.94,East,92,8.0,17.0,84,0.00,FEW,SCT,0.00,0.0,WeatherDisplay:10.37,2013-03-29 11:50:00,
2013-03-29 02:00:00,63.7,59.1,29.94,East,81,7.0,15.0,85,0.00,FEW,SCT,0.00,0.0,WeatherDisplay:10.37,2013-03-29 12:00:00,
2013-03-29 02:10:00,63.7,58.8,29.93,ENE,77,6.0,13.0,84,0.00,FEW,SCT,0.00,0.0,WeatherDisplay:10.37,2013-03-29 12:10:00,
2013-03-29 02:20:00,63.5,58.9,29.93,East,83,5.0,12.0,85,0.00,FEW,SCT,0.00,0.0,WeatherDisplay:10.37,2013-03-29 12:20:00,
2013-03-29 02:30:00,63.4,58.8,29.93,ENE,75,8.0,15.0,85,0.00,FEW,SCT,0.00,0.0,WeatherDisplay:10.37,2013-03-29 12:30:00,
2013-03-29 02:40:00,63.3,58.7,29.93,East,81,8.0,14.0,85,0.00,FEW,SCT,0.00,0.0,WeatherDisplay:10.37,2013-03-29 12:40:00,
2013-03-29 02:50:00,63.2,58.6,29.93,East,83,6.0,15.0,85,0.00,FEW,SCT,0.00,0.0,WeatherDisplay:10.37,2013-03-29 12:50:00,
2013-03-29 03:00:00,63.4,58.5,29.92,East,85,8.0,20.0,84,0.00,FEW,SCT,0.00,0.0,WeatherDisplay:10.37,2013-03-29 13:00:00,
2013-03-29 03:10:00,63.5,58.2,29.92,East,81,12.0,18.0,83,0.00,FEW,SCT,0.00,0.0,WeatherDisplay:10.37,2013-03-29 13:10:00,
2013-03-29 03:20:00,63.5,57.9,29.92,East,80,9.0,16.0,82,0.00,CLR,SCT,0.00,0.0,WeatherDisplay:10.37,2013-03-29 13:20:00,
2013-03-29 03:30:00,63.6,57.7,29.92,East,82,9.0,20.0,81,0.00,CLR,SCT,0.00,0.0,WeatherDisplay:10.37,2013-03-29 13:30:00,
2013-03-29 03:40:00,63.7,57.7,29.92,ENE,74,7.0,16.0,81,0.00,CLR,SCT,0.00,0.0,WeatherDisplay:10.37,2013-03-29 13:40:00,
2013-03-29 03:50:00,63.4,57.5,29.92,ENE,77,5.0,13.0,81,0.00,CLR,SCT,0.00,0.0,WeatherDisplay:10.37,2013-03-29 13:50:00,
2013-03-29 04:00:00,63.4,57.1,29.92,East,83,6.0,15.0,80,0.00,CLR,SCT,0.00,0.0,WeatherDisplay:10.37,2013-03-29 14:00:00,
2013-03-29 04:10:00,63.4,57.4,29.92,East,86,5.0,12.0,81,0.00,CLR,SCT,0.00,0.0,WeatherDisplay:10.37,2013-03-29 14:10:00,
2013-03-29 04:20:00,63.0,57.4,29.92,ENE,66,6.0,12.0,82,0.00,CLR,SCT,0.00,0.0,WeatherDisplay:10.37,2013-03-29 14:20:00,
2013-03-29 04:30:00,62.7,57.1,29.92,East,82,7.0,14.0,82,0.00,CLR,SCT,0.00,0.0,WeatherDisplay:10.37,2013-03-29 14:30:00,
2013-03-29 04:40:00,63.1,57.5,29.92,East,79,7.0,13.0,82,0.00,CLR,SCT,0.00,0.0,WeatherDisplay:10.37,2013-03-29 14:40:00,
2013-03-29 04:50:00,63.3,57.7,29.92,East,81,5.0,12.0,82,0.00,CLR,SCT,0.00,0.0,WeatherDisplay:10.37,2013-03-29 14:50:00,
2013-03-29 05:00:00,63.1,57.2,29.92,East,87,6.0,12.0,81,0.00,CLR,SCT,0.00,0.0,WeatherDisplay:10.37,2013-03-29 15:00:00,
2013-03-29 05:10:00,63.1,56.8,29.92,ENE,73,8.0,14.0,80,0.00,FEW,SCT,0.00,0.0,WeatherDisplay:10.37,2013-03-29 15:10:00,
2013-03-29 05:20:00,63.2,56.9,29.92,ENE,62,6.0,10.0,80,0.00,FEW,SCT,0.00,0.0,WeatherDisplay:10.37,2013-03-29 15:20:00,
2013-03-29 05:30:00,62.7,57.1,29.92,ENE,68,5.0,10.0,82,0.00,FEW,SCT,0.00,0.0,WeatherDisplay:10.37,2013-03-29 15:30:00,
2013-03-29 05:40:00,62.5,56.9,29.92,ENE,78,5.0,14.0,82,0.00,FEW,SCT,0.00,0.0,WeatherDisplay:10.37,2013-03-29 15:40:00,
2013-03-29 05:50:00,62.9,56.6,29.93,East,87,6.0,12.0,80,0.00,FEW,SCT,0.00,0.0,WeatherDisplay:10.37,2013-03-29 15:50:00,
2013-03-29 06:00:00,63.3,56.7,29.93,East,96,3.0,10.0,79,0.00,FEW,SCT,0.00,0.0,WeatherDisplay:10.37,2013-03-29 16:00:00,
2013-03-29 06:10:00,63.2,56.9,29.93,ESE,108,1.0,5.0,80,0.00,-RA,SCT,0.00,0.0,WeatherDisplay:10.37,2013-03-29 16:10:00,
2013-03-29 06:20:00,63.1,56.1,29.94,ESE,104,3.0,6.0,78,0.00,-RA,SCT,0.00,0.0,WeatherDisplay:10.37,2013-03-29 16:20:00,
2013-03-29 06:30:00,62.9,56.7,29.94,East,82,3.0,8.0,80,0.00,-RA,SCT,0.00,0.0,WeatherDisplay:10.37,2013-03-29 16:30:00,
2013-03-29 06:40:00,63.0,57.1,29.95,East,86,5.0,10.0,81,0.00,-RA,SCT,0.00,0.0,WeatherDisplay:10.37,2013-03-29 16:40:00,
2013-03-29 06:50:00,63.2,58.9,29.95,ENE,71,5.0,12.0,86,0.00,-RA,SCT,0.00,0.1,WeatherDisplay:10.37,2013-03-29 16:50:00,
2013-03-29 07:00:00,63.0,59.7,29.95,ENE,65,3.0,14.0,89,0.00,-RA,SCT,0.00,0.3,WeatherDisplay:10.37,2013-03-29 17:00:00,
2013-03-29 07:10:00,62.8,59.2,29.95,ENE,68,7.0,12.0,88,0.00,-RA,SCT,0.00,1.2,WeatherDisplay:10.37,2013-03-29 17:10:00,
2013-03-29 07:20:00,63.1,59.2,29.96,East,82,3.0,10.0,87,0.00,-RA,SCT,0.00,3.0,WeatherDisplay:10.37,2013-03-29 17:20:00,
2013-03-29 07:30:00,64.1,59.2,29.96,East,88,8.0,16.0,84,0.00,-RA,SCT,0.00,13.5,WeatherDisplay:10.37,2013-03-29 17:30:00,
2013-03-29 07:40:00,65.2,59.6,29.96,East,85,7.0,15.0,82,0.00,-RA,SCT,0.00,26.7,WeatherDisplay:10.37,2013-03-29 17:40:00,
2013-03-29 07:50:00,65.5,60.2,29.97,NE,53,8.0,13.0,83,0.00,-RA,SCT,0.00,7.7,WeatherDisplay:10.37,2013-03-29 17:50:00,
2013-03-29 08:00:00,65.0,60.4,29.97,ENE,75,6.0,13.0,85,0.00,-RA,SCT,0.00,46.7,WeatherDisplay:10.37,2013-03-29 18:00:00,
2013-03-29 08:10:00,66.5,60.9,29.97,ENE,60,6.0,12.0,82,0.00,-RA,SCT,0.00,66.5,WeatherDisplay:10.37,2013-03-29 18:10:00,
2013-03-29 08:20:00,67.7,61.7,29.97,NE,51,7.0,14.0,81,0.00,-RA,SCT,0.00,85.9,WeatherDisplay:10.37,2013-03-29 18:20:00,
2013-03-29 08:30:00,67.2,60.8,29.97,ENE,65,6.0,13.0,80,0.00,-RA,SCT,0.00,40.1,WeatherDisplay:10.37,2013-03-29 18:30:00,
2013-03-29 08:40:00,66.6,61.6,29.98,ENE,59,8.0,14.0,84,0.00,-RA,SCT,0.00,30.2,WeatherDisplay:10.37,2013-03-29 18:40:00,
2013-03-29 08:50:00,65.8,61.8,29.98,NE,56,7.0,15.0,87,0.00,-RA,SCT,0.00,67.1,WeatherDisplay:10.37,2013-03-29 18:50:00,
2013-03-29 09:00:00,65.7,62.4,29.99,ENE,76,7.0,13.0,89,0.00,-RA,SCT,0.00,34.8,WeatherDisplay:10.37,2013-03-29 19:00:00,
2013-03-29 09:10:00,65.5,62.5,29.99,ENE,66,5.0,15.0,90,0.02,-RA,SCT,0.02,64.1,WeatherDisplay:10.37,2013-03-29 19:10:00,
2013-03-29 09:20:00,65.2,62.5,29.99,ENE,61,6.0,13.0,91,0.00,-RA,SCT,0.02,75.4,WeatherDisplay:10.37,2013-03-29 19:20:00,
2013-03-29 09:30:00,65.0,62.6,29.99,ENE,68,8.0,14.0,92,0.16,-RA,SCT,0.18,135.3,WeatherDisplay:10.37,2013-03-29 19:30:00,
2013-03-29 09:40:00,65.1,63.0,29.99,ENE,72,8.0,16.0,93,0.03,-RA,SCT,0.21,152.1,WeatherDisplay:10.37,2013-03-29 19:40:00,
2013-03-29 09:50:00,65.3,63.5,29.99,ENE,66,8.0,14.0,94,0.02,-RA,SCT,0.23,170.9,WeatherDisplay:10.37,2013-03-29 19:50:00,
2013-03-29 10:00:00,65.6,63.8,29.99,ENE,64,6.0,13.0,94,0.03,-RA,SCT,0.26,355.5,WeatherDisplay:10.37,2013-03-29 20:00:00,
2013-03-29 10:10:00,66.3,64.5,29.99,ENE,67,10.0,17.0,94,0.01,RA,SCT,0.27,274.6,WeatherDisplay:10.37,2013-03-29 20:10:00,
2013-03-29 10:20:00,66.7,64.6,29.98,ENE,66,10.0,17.0,93,0.01,RA,SCT,0.28,702.2,WeatherDisplay:10.37,2013-03-29 20:20:00,
2013-03-29 10:30:00,66.5,64.1,29.98,ENE,59,7.0,17.0,92,0.00,SCT,SCT,0.28,410.3,WeatherDisplay:10.37,2013-03-29 20:30:00,
2013-03-29 10:40:00,66.7,64.3,29.98,ENE,61,9.0,14.0,92,0.00,SCT,SCT,0.29,439.9,WeatherDisplay:10.37,2013-03-29 20:40:00,
2013-03-29 10:50:00,67.1,65.0,29.98,NE,55,7.0,14.0,93,0.02,RA,SCT,0.30,931.2,WeatherDisplay:10.37,2013-03-29 20:50:00,
2013-03-29 11:00:00,67.4,65.0,29.98,ENE,63,3.0,14.0,92,0.00,SCT,SCT,0.30,461.4,WeatherDisplay:10.37,2013-03-29 21:00:00,
2013-03-29 11:10:00,67.4,65.0,29.97,ENE,57,8.0,16.0,92,0.00,BKN,SCT,0.30,738.5,WeatherDisplay:10.37,2013-03-29 21:10:00,
2013-03-29 11:20:00,67.5,65.1,29.97,NE,49,9.0,17.0,92,0.01,RA,SCT,0.31,498.0,WeatherDisplay:10.37,2013-03-29 21:20:00,
2013-03-29 11:30:00,66.8,64.4,29.97,ENE,64,12.0,23.0,92,0.01,RA,SCT,0.32,679.0,WeatherDisplay:10.37,2013-03-29 21:30:00,
2013-03-29 11:40:00,66.5,64.1,29.97,ENE,58,9.0,18.0,92,0.01,RA,SCT,0.33,954.9,WeatherDisplay:10.37,2013-03-29 21:40:00,
2013-03-29 11:50:00,66.8,64.7,29.97,ENE,68,6.0,17.0,93,0.01,RA,SCT,0.34,1030.3,WeatherDisplay:10.37,2013-03-29 21:50:00,
2013-03-29 12:00:00,67.2,65.1,29.96,ENE,76,9.0,19.0,93,0.00,BKN,SCT,0.34,930.3,WeatherDisplay:10.37,2013-03-29 22:00:00,
2013-03-29 12:10:00,67.9,65.2,29.96,ENE,75,10.0,17.0,91,0.00,BKN,SCT,0.34,1226.6,WeatherDisplay:10.37,2013-03-29 22:10:00,
2013-03-29 12:20:00,68.7,66.2,29.96,ENE,62,9.0,14.0,92,0.00,BKN,SCT,0.34,774.3,WeatherDisplay:10.37,2013-03-29 22:20:00,
2013-03-29 12:30:00,68.9,66.2,29.95,ENE,60,8.0,17.0,91,0.00,BKN,SCT,0.34,942.6,WeatherDisplay:10.37,2013-03-29 22:30:00,
2013-03-29 12:40:00,68.8,66.1,29.95,ENE,59,5.0,16.0,91,0.00,BKN,SCT,0.34,700.0,WeatherDisplay:10.37,2013-03-29 22:40:00,
2013-03-29 12:50:00,68.3,65.0,29.95,ENE,70,7.0,17.0,89,0.01,RA,SCT,0.35,677.2,WeatherDisplay:10.37,2013-03-29 22:50:00,
2013-03-29 13:00:00,67.6,65.2,29.94,ENE,71,10.0,23.0,92,0.00,BKN,SCT,0.35,731.2,WeatherDisplay:10.37,2013-03-29 23:00:00,
2013-03-29 13:10:00,67.8,64.8,29.93,East,87,6.0,17.0,90,0.01,RA,SCT,0.36,741.8,WeatherDisplay:10.37,2013-03-29 23:10:00,
2013-03-29 13:20:00,68.3,65.5,29.93,ENE,62,8.0,20.0,91,0.00,BKN,SCT,0.36,1252.4,WeatherDisplay:10.37,2013-03-29 23:20:00,
2013-03-29 13:30:00,68.6,66.2,29.93,ENE,62,7.0,16.0,92,0.00,BKN,SCT,0.36,418.6,WeatherDisplay:10.37,2013-03-29 23:30:00,
2013-03-29 13:40:00,67.8,65.1,29.92,ENE,78,6.0,13.0,91,0.00,BKN,SCT,0.36,387.8,WeatherDisplay:10.37,2013-03-29 23:40:00,
2013-03-29 13:50:00,67.6,64.2,29.92,East,82,12.0,18.0,89,0.00,BKN,SCT,0.36,386.2,WeatherDisplay:10.37,2013-03-29 23:50:00,
2013-03-29 14:00:00,67.3,64.3,29.92,East,81,8.0,15.0,90,0.00,BKN,SCT,0.36,454.6,WeatherDisplay:10.37,2013-03-30 00:00:00,
2013-03-29 14:10:00,67.4,65.3,29.92,ENE,71,5.0,15.0,93,0.00,BKN,SCT,0.36,413.9,WeatherDisplay:10.37,2013-03-30 00:10:00,
2013-03-29 14:20:00,67.3,64.9,29.91,ENE,70,10.0,17.0,92,0.00,BKN,SCT,0.36,375.7,WeatherDisplay:10.37,2013-03-30 00:20:00,
2013-03-29 14:30:00,67.3,64.6,29.91,ENE,70,6.0,15.0,91,0.00,BKN,SCT,0.36,224.4,WeatherDisplay:10.37,2013-03-30 00:30:00,
2013-03-29 14:40:00,67.0,64.3,29.91,ENE,67,6.0,20.0,91,0.01,RA,SCT,0.37,269.8,WeatherDisplay:10.37,2013-03-30 00:40:00,
2013-03-29 14:50:00,66.7,63.7,29.91,ENE,72,9.0,15.0,90,0.00,BKN,SCT,0.37,265.6,WeatherDisplay:10.37,2013-03-30 00:50:00,
2013-03-29 15:00:00,66.3,63.6,29.91,ENE,71,7.0,15.0,91,0.00,BKN,SCT,0.37,170.7,WeatherDisplay:10.37,2013-03-30 01:00:00,
2013-03-29 15:10:00,66.2,63.8,29.91,ENE,68,8.0,15.0,92,0.02,-RA,SCT,0.39,164.5,WeatherDisplay:10.37,2013-03-30 01:10:00,
2013-03-29 15:20:00,66.2,64.1,29.91,ENE,61,6.0,14.0,93,0.00,-RA,SCT,0.39,162.1,WeatherDisplay:10.37,2013-03-30 01:20:00,
2013-03-29 15:30:00,66.1,63.7,29.91,ENE,67,10.0,14.0,92,0.01,-RA,SCT,0.40,67.1,WeatherDisplay:10.37,2013-03-30 01:30:00,
2013-03-29 15:40:00,65.6,63.2,29.91,ENE,65,5.0,15.0,92,0.02,-RA,SCT,0.42,44.7,WeatherDisplay:10.37,2013-03-30 01:40:00,
2013-03-29 15:50:00,65.3,63.2,29.91,ENE,58,3.0,14.0,93,0.01,-RA,SCT,0.43,65.4,WeatherDisplay:10.37,2013-03-30 01:50:00,
2013-03-29 16:00:00,65.4,63.3,29.92,ENE,67,5.0,10.0,93,0.00,-RA,SCT,0.43,51.2,WeatherDisplay:10.37,2013-03-30 02:00:00,
2013-03-29 16:10:00,65.4,63.6,29.92,ENE,75,3.0,10.0,94,0.01,-RA,SCT,0.45,26.7,WeatherDisplay:10.37,2013-03-30 02:10:00,
2013-03-29 16:20:00,65.3,63.2,29.92,ENE,78,5.0,6.0,93,0.04, +RA,SCT,0.48,29.1,WeatherDisplay:10.37,2013-03-30 02:20:00,
2013-03-29 16:30:00,65.2,63.1,29.92,ENE,65,7.0,12.0,93,0.03, +RA,SCT,0.52,25.9,WeatherDisplay:10.37,2013-03-30 02:30:00,
2013-03-29 16:40:00,65.1,63.3,29.92,ENE,67,3.0,9.0,94,0.05, +RA,SCT,0.56,20.1,WeatherDisplay:10.37,2013-03-30 02:40:00,
2013-03-29 16:50:00,64.8,62.8,29.93,ENE,73,5.0,12.0,93,0.02, +RA,SCT,0.58,13.7,WeatherDisplay:10.37,2013-03-30 02:50:00,
2013-03-29 17:00:00,64.7,62.9,29.93,ENE,61,5.0,12.0,94,0.06, +RA,SCT,0.64,7.6,WeatherDisplay:10.37,2013-03-30 03:00:00,
2013-03-29 17:10:00,64.6,62.8,29.93,ENE,67,6.0,10.0,94,0.05, +RA,SCT,0.69,5.3,WeatherDisplay:10.37,2013-03-30 03:10:00,
2013-03-29 17:20:00,64.3,62.2,29.94,East,80,5.0,13.0,93,0.04,RA,SCT,0.73,3.8,WeatherDisplay:10.37,2013-03-30 03:20:00,
2013-03-29 17:30:00,64.1,62.3,29.94,ENE,76,3.0,13.0,94,0.01,RA,SCT,0.74,2.7,WeatherDisplay:10.37,2013-03-30 03:30:00,
2013-03-29 17:40:00,64.0,62.2,29.95,East,81,6.0,13.0,94,0.00,BKN,SCT,0.74,1.3,WeatherDisplay:10.37,2013-03-30 03:40:00,
2013-03-29 17:50:00,63.8,61.8,29.95,ENE,76,6.0,10.0,93,0.01,RA,SCT,0.75,0.7,WeatherDisplay:10.37,2013-03-30 03:50:00,
2013-03-29 18:00:00,63.8,62.0,29.94,ENE,58,1.0,7.0,94,0.02,RA,SCT,0.77,0.2,WeatherDisplay:10.37,2013-03-30 04:00:00,
2013-03-29 18:10:00,63.8,62.4,29.95,NE,35,1.0,7.0,95,0.03,RA,SCT,0.80,0.1,WeatherDisplay:10.37,2013-03-30 04:10:00,
2013-03-29 18:20:00,63.7,61.9,29.95,ENE,58,7.0,12.0,94,0.02,-RA,SCT,0.82,0.0,WeatherDisplay:10.37,2013-03-30 04:20:00,
2013-03-29 18:30:00,63.5,61.7,29.95,NE,56,5.0,12.0,94,0.01,-RA,SCT,0.83,0.0,WeatherDisplay:10.37,2013-03-30 04:30:00,
2013-03-29 18:40:00,63.4,61.9,29.95,ENE,65,3.0,13.0,95,0.01,-RA,SCT,0.84,0.0,WeatherDisplay:10.37,2013-03-30 04:40:00,
2013-03-29 18:50:00,63.4,61.9,29.96,ENE,75,6.0,12.0,95,0.00,-RA,SCT,0.84,0.0,WeatherDisplay:10.37,2013-03-30 04:50:00,
2013-03-29 19:00:00,63.4,61.6,29.96,East,79,3.0,8.0,94,0.00,-RA,SCT,0.84,0.0,WeatherDisplay:10.37,2013-03-30 05:00:00,
2013-03-29 19:10:00,63.4,61.9,29.96,ENE,75,6.0,10.0,95,0.00,-RA,SCT,0.84,0.0,WeatherDisplay:10.37,2013-03-30 05:10:00,
2013-03-29 19:20:00,63.5,62.0,29.96,ENE,71,2.0,7.0,95,0.01,-RA,SCT,0.85,0.0,WeatherDisplay:10.37,2013-03-30 05:20:00,
2013-03-29 19:30:00,63.5,62.1,29.97,ENE,65,2.0,8.0,95,0.00,-RA,SCT,0.85,0.0,WeatherDisplay:10.37,2013-03-30 05:30:00,
2013-03-29 19:40:00,63.6,62.1,29.97,NE,56,3.0,10.0,95,0.01,-RA,SCT,0.86,0.0,WeatherDisplay:10.37,2013-03-30 05:40:00,
2013-03-29 19:50:00,63.6,62.1,29.97,ENE,60,8.0,13.0,95,0.00,-RA,SCT,0.86,0.0,WeatherDisplay:10.37,2013-03-30 05:50:00,
2013-03-29 20:00:00,63.5,62.0,29.97,ENE,59,6.0,12.0,95,0.00,-RA,SCT,0.86,0.0,WeatherDisplay:10.37,2013-03-30 06:00:00,
2013-03-29 20:10:00,63.5,62.0,29.97,NE,48,2.0,9.0,95,0.01,RA,SCT,0.87,0.0,WeatherDisplay:10.37,2013-03-30 06:10:00,
2013-03-29 20:20:00,63.5,62.0,29.98,ENE,74,3.0,5.0,95,0.00,OVC,SCT,0.87,0.0,WeatherDisplay:10.37,2013-03-30 06:20:00,
2013-03-29 20:30:00,63.5,62.0,29.98,East,97,2.0,8.0,95,0.00,OVC,SCT,0.87,0.0,WeatherDisplay:10.37,2013-03-30 06:30:00,
2013-03-29 20:40:00,63.6,62.1,29.98,ESE,120,2.0,6.0,95,0.00,OVC,SCT,0.87,0.0,WeatherDisplay:10.37,2013-03-30 06:40:00,
2013-03-29 20:50:00,63.7,61.9,29.98,ESE,123,1.0,4.0,94,0.00,OVC,SCT,0.87,0.0,WeatherDisplay:10.37,2013-03-30 06:50:00,
2013-03-29 21:00:00,63.7,61.9,29.99,East,95,3.0,8.0,94,0.00,OVC,SCT,0.87,0.0,WeatherDisplay:10.37,2013-03-30 07:00:00,
2013-03-29 21:10:00,63.7,61.9,29.99,East,83,3.0,8.0,94,0.00,-RA,SCT,0.87,0.0,WeatherDisplay:10.37,2013-03-30 07:10:00,
2013-03-29 21:20:00,63.7,61.6,29.99,East,83,6.0,12.0,93,0.00,-RA,SCT,0.87,0.0,WeatherDisplay:10.37,2013-03-30 07:20:00,
2013-03-29 21:30:00,63.7,61.6,29.99,East,86,5.0,12.0,93,0.00,-RA,SCT,0.87,0.0,WeatherDisplay:10.37,2013-03-30 07:30:00,
2013-03-29 21:40:00,63.6,61.5,29.99,East,85,5.0,9.0,93,0.00,-RA,SCT,0.87,0.0,WeatherDisplay:10.37,2013-03-30 07:40:00,
2013-03-29 21:50:00,63.4,61.0,29.99,SE,127,2.0,5.0,92,0.00,-RA,SCT,0.87,0.0,WeatherDisplay:10.37,2013-03-30 07:50:00,
2013-03-29 22:00:00,63.2,61.1,29.99,SSW,195,0.0,5.0,93,0.00,-RA,SCT,0.87,0.0,WeatherDisplay:10.37,2013-03-30 08:00:00,
2013-03-29 22:10:00,63.0,60.9,29.99,SSW,196,0.0,0.0,93,0.00,-RA,SCT,0.87,0.0,WeatherDisplay:10.37,2013-03-30 08:10:00,
2013-03-29 22:20:00,62.6,60.8,29.99,SSW,196,0.0,1.0,94,0.00,-RA,SCT,0.87,0.0,WeatherDisplay:10.37,2013-03-30 08:20:00,
2013-03-29 22:30:00,62.3,60.6,29.99,SSW,196,0.0,1.0,94,0.00,-RA,SCT,0.87,0.0,WeatherDisplay:10.37,2013-03-30 08:30:00,
2013-03-29 22:40:00,62.0,60.3,29.99,SSW,196,0.0,1.0,94,0.00,-RA,SCT,0.87,0.0,WeatherDisplay:10.37,2013-03-30 08:40:00,
2013-03-29 22:50:00,61.8,60.1,29.99,SSW,194,1.0,3.0,94,0.00,BKN,SCT,0.87,0.0,WeatherDisplay:10.37,2013-03-30 08:50:00,
2013-03-29 23:00:00,61.7,60.3,29.99,SSW,192,0.0,0.0,95,0.00,BKN,SCT,0.87,0.0,WeatherDisplay:10.37,2013-03-30 09:00:00,
2013-03-29 23:10:00,61.6,60.1,29.99,SSW,192,0.0,0.0,95,0.00,OVC,SCT,0.87,0.0,WeatherDisplay:10.37,2013-03-30 09:10:00,
2013-03-29 23:20:00,61.5,60.1,29.99,SSW,192,0.0,1.0,95,0.00,OVC,SCT,0.87,0.0,WeatherDisplay:10.37,2013-03-30 09:20:00,
2013-03-29 23:30:00,61.4,60.0,29.99,SSW,192,0.0,1.0,95,0.00,OVC,SCT,0.87,0.0,WeatherDisplay:10.37,2013-03-30 09:30:00,
2013-03-29 23:40:00,61.3,59.9,29.98,South,190,0.0,4.0,95,0.00,OVC,SCT,0.87,0.0,WeatherDisplay:10.37,2013-03-30 09:40:00,
2013-03-29 23:50:00,61.3,59.9,29.98,South,189,0.0,0.0,95,0.00,OVC,SCT,0.87,0.0,WeatherDisplay:10.37,2013-03-30 09:50:00,